Über Connecta IOT-13
Group: 3 satellites
Beschreibung wird geladen...
Live-Position
3D-Globus wird geladen...
Nächste Überflüge
Höhenverlauf
Altitude vs Time
uPlot chart will show altitude changes over time
Zweizeiliger Elementsatz
1 67400U 26004AP 26061.44603637 .00004475 00000-0 22421-3 0 9991
2 67400 97.4559 62.0795 0009248 11.1348 349.0088 15.17841775 7564
Epoch: 2. März 2026 •
Age: 25 hours
Aktueller Status
Höhe 540.6 km
Geschwindigkeit 7.59 km/s
Subsatellitenpunkt -79.54°S,
62.06°W
Startdatum 11. Jan. 2026
Alter 0.1 years
Typ other
Technische Details
Klassifizierung Payload
Masse 10.00 kg
Trockenmasse 10.00 kg
Gesamtmasse 10.00 kg
Länge 0.30 m
Durchmesser 0.20 m
Spannweite 0.30 m
Form Box
Hersteller PLNSST
Bus-Typ Cubesat 6U
Phasenstatus In Orbit
Besitzer/Staat PLNSST/TR
Große Konstellationen
Loading constellations...